Tracking 35275 objects as of 9-Sep-2026
HD Live streaming from Space Station
objects crossing your sky now

STARLINK-34178

Track STARLINK-34178 now!
10-day predictions
STARLINK-34178 is classified as:


NORAD ID: 64096
Int'l Code: 2025-110A
Launch date: May 23, 2025
Source: United States (US)
Launch site: AIR FORCE WESTERN TEST RANGE (AFWTR)
Your satellite tracking list
Your tracking list is empty




NASA's NSSDC Master Catalog

Two Line Element Set (TLE):
1 64096U 25110A   26249.43438067  .00007539  00000-0  25437-3 0  9990
2 64096  53.1586 266.6326 0001209  76.4575 283.6561 15.31709187 73566
Source of the keplerian elements: AFSPC